owner,sensor,date,latitude,longitude,vertical_datum,sea_water_practical_salinity,qcFlag 
SCCF RECON,ioos:station:SCCF:11:1,2012-06-01T00:00:00Z,26.4679,-82.0631,1.81,35.97,1111122 
SCCF RECON,ioos:station:SCCF:11:1,2012-06-01T01:00:00Z,26.4679,-82.0631,1.91,35.98,1111122 
SCCF RECON,ioos:station:SCCF:11:1,2012-06-01T02:00:00Z,26.4679,-82.0631,2.01,35.99,1111122 
SCCF RECON,ioos:station:SCCF:11:1,2012-06-01T03:00:00Z,26.4679,-82.0631,2.11,35.86,1111122 
SCCF RECON,ioos:station:SCCF:11:1,2012-06-01T04:00:00Z,26.4679,-82.0631,2.14,35.85,1111122 
SCCF RECON,ioos:station:SCCF:11:1,2012-06-01T05:00:00Z,26.4679,-82.0631,2.08,35.83,1111122 
SCCF RECON,ioos:station:SCCF:11:1,2012-06-01T06:00:00Z,26.4679,-82.0631,1.96,35.87,1111122 
SCCF RECON,ioos:station:SCCF:11:1,2012-06-01T07:00:00Z,26.4679,-82.0631,1.86,35.94,1111122 
SCCF RECON,ioos:station:SCCF:11:1,2012-06-01T08:00:00Z,26.4679,-82.0631,1.81,35.98,1111122 
SCCF RECON,ioos:station:SCCF:11:1,2012-06-01T09:00:00Z,26.4679,-82.0631,1.83,35.99,1111122 
SCCF RECON,ioos:station:SCCF:11:1,2012-06-01T10:00:00Z,26.4679,-82.0631,1.938,35.91,1111122 
SCCF RECON,ioos:station:SCCF:11:1,2012-06-01T11:00:00Z,26.4679,-82.0631,2.06,36.01,1111122 
SCCF RECON,ioos:station:SCCF:11:1,2012-06-01T12:00:00Z,26.4679,-82.0631,2.15,36.06,1111122 
SCCF RECON,ioos:station:SCCF:11:1,2012-06-01T13:00:00Z,26.4679,-82.0631,2.25,36.32,1111122 
SCCF RECON,ioos:station:SCCF:11:1,2012-06-01T14:00:00Z,26.4679,-82.0631,2.317,36.47,1111122 
SCCF RECON,ioos:station:SCCF:11:1,2012-06-01T15:00:00Z,26.4679,-82.0631,2.346,36.47,1111122 
SCCF RECON,ioos:station:SCCF:11:1,2012-06-01T16:00:00Z,26.4679,-82.0631,2.32,36.56,1111122 
SCCF RECON,ioos:station:SCCF:11:1,2012-06-01T17:00:00Z,26.4679,-82.0631,2.18,36.32,1111122 
SCCF RECON,ioos:station:SCCF:11:1,2012-06-01T18:00:00Z,26.4679,-82.0631,2.049,36.18,1111122 
SCCF RECON,ioos:station:SCCF:11:1,2012-06-01T19:00:00Z,26.4679,-82.0631,1.922,36.25,1111122 
SCCF RECON,ioos:station:SCCF:11:1,2012-06-01T20:00:00Z,26.4679,-82.0631,1.8,36.14,1111122 
SCCF RECON,ioos:station:SCCF:11:1,2012-06-01T21:00:00Z,26.4679,-82.0631,1.69,36.15,1111122 
SCCF RECON,ioos:station:SCCF:11:1,2012-06-01T22:00:00Z,26.4679,-82.0631,1.581,36.14,1111122 
SCCF RECON,ioos:station:SCCF:11:1,2012-06-01T23:00:00Z,26.4679,-82.0631,1.63,36.23,1111122 
SCCF RECON,ioos:station:SCCF:11:1,2012-06-02T00:00:00Z,26.4679,-82.0631,1.76,36.25,1111122 
SCCF RECON,ioos:station:SCCF:11:1,2012-06-02T01:00:00Z,26.4679,-82.0631,1.91,36.26,1111122 
SCCF RECON,ioos:station:SCCF:11:1,2012-06-02T02:00:00Z,26.4679,-82.0631,2.0,36.33,1111122 
SCCF RECON,ioos:station:SCCF:11:1,2012-06-02T03:00:00Z,26.4679,-82.0631,2.1,36.38,1111122 
SCCF RECON,ioos:station:SCCF:11:1,2012-06-02T04:00:00Z,26.4679,-82.0631,2.16,36.41,1111122 
SCCF RECON,ioos:station:SCCF:11:1,2012-06-02T05:00:00Z,26.4679,-82.0631,2.17,36.38,1111122 
SCCF RECON,ioos:station:SCCF:11:1,2012-06-02T06:00:00Z,26.4679,-82.0631,2.139,36.39,1111122 
SCCF RECON,ioos:station:SCCF:11:1,2012-06-02T07:00:00Z,26.4679,-82.0631,2.0,36.31,1111122 
SCCF RECON,ioos:station:SCCF:11:1,2012-06-02T08:00:00Z,26.4679,-82.0631,1.98,36.18,1111122 
SCCF RECON,ioos:station:SCCF:11:1,2012-06-02T09:00:00Z,26.4679,-82.0631,1.93,36.19,1111122 
SCCF RECON,ioos:station:SCCF:11:1,2012-06-02T10:00:00Z,26.4679,-82.0631,1.92,36.2,1111122 
SCCF RECON,ioos:station:SCCF:11:1,2012-06-02T11:00:00Z,26.4679,-82.0631,2.01,36.24,1111122 
SCCF RECON,ioos:station:SCCF:11:1,2012-06-02T12:00:00Z,26.4679,-82.0631,2.14,36.32,1111122 
SCCF RECON,ioos:station:SCCF:11:1,2012-06-02T13:00:00Z,26.4679,-82.0631,2.27,36.56,1111122 
SCCF RECON,ioos:station:SCCF:11:1,2012-06-02T14:00:00Z,26.4679,-82.0631,2.378,36.59,1111122 
SCCF RECON,ioos:station:SCCF:11:1,2012-06-02T15:00:00Z,26.4679,-82.0631,2.42,36.59,1111122 
SCCF RECON,ioos:station:SCCF:11:1,2012-06-02T16:00:00Z,26.4679,-82.0631,2.399,36.44,1111122 
SCCF RECON,ioos:station:SCCF:11:1,2012-06-02T17:00:00Z,26.4679,-82.0631,2.28,36.28,1111122 
SCCF RECON,ioos:station:SCCF:11:1,2012-06-02T18:00:00Z,26.4679,-82.0631,2.099,36.25,1111122 
SCCF RECON,ioos:station:SCCF:11:1,2012-06-02T19:00:00Z,26.4679,-82.0631,1.937,36.24,1111122 
SCCF RECON,ioos:station:SCCF:11:1,2012-06-02T20:00:00Z,26.4679,-82.0631,1.77,36.22,1111122 
SCCF RECON,ioos:station:SCCF:11:1,2012-06-02T21:00:00Z,26.4679,-82.0631,1.61,36.21,1111122 
SCCF RECON,ioos:station:SCCF:11:1,2012-06-02T22:00:00Z,26.4679,-82.0631,1.47,36.19,1111122 
SCCF RECON,ioos:station:SCCF:11:1,2012-06-02T23:00:00Z,26.4679,-82.0631,1.39,36.19,1111122 
SCCF RECON,ioos:station:SCCF:11:1,2012-06-03T00:00:00Z,26.4679,-82.0631,1.41,36.18,1111122 
SCCF RECON,ioos:station:SCCF:11:1,2012-06-03T01:00:00Z,26.4679,-82.0631,1.578,36.35,1111122 
SCCF RECON,ioos:station:SCCF:11:1,2012-06-03T02:00:00Z,26.4679,-82.0631,1.74,36.25,1111122 
SCCF RECON,ioos:station:SCCF:11:1,2012-06-03T03:00:00Z,26.4679,-82.0631,1.88,36.29,1111122 
SCCF RECON,ioos:station:SCCF:11:1,2012-06-03T04:00:00Z,26.4679,-82.0631,2.0,36.27,1111122 
SCCF RECON,ioos:station:SCCF:11:1,2012-06-03T05:00:00Z,26.4679,-82.0631,2.09,36.23,1111122 
SCCF RECON,ioos:station:SCCF:11:1,2012-06-03T06:00:00Z,26.4679,-82.0631,2.102,36.14,1111122 
SCCF RECON,ioos:station:SCCF:11:1,2012-06-03T07:00:00Z,26.4679,-82.0631,2.03,36.17,1111122 
SCCF RECON,ioos:station:SCCF:11:1,2012-06-03T08:00:00Z,26.4679,-82.0631,1.96,36.14,1111122 
SCCF RECON,ioos:station:SCCF:11:1,2012-06-03T09:00:00Z,26.4679,-82.0631,1.92,36.17,1111122 
SCCF RECON,ioos:station:SCCF:11:1,2012-06-03T10:00:00Z,26.4679,-82.0631,1.9,36.17,1111122 
SCCF RECON,ioos:station:SCCF:11:1,2012-06-03T11:00:00Z,26.4679,-82.0631,1.891,36.16,1111122 
SCCF RECON,ioos:station:SCCF:11:1,2012-06-03T12:00:00Z,26.4679,-82.0631,1.99,36.16,1111122 
SCCF RECON,ioos:station:SCCF:11:1,2012-06-03T13:00:00Z,26.4679,-82.0631,2.14,36.18,1111122 
SCCF RECON,ioos:station:SCCF:11:1,2012-06-03T14:00:00Z,26.4679,-82.0631,2.282,36.23,1111122 
SCCF RECON,ioos:station:SCCF:11:1,2012-06-03T15:00:00Z,26.4679,-82.0631,2.372,36.1,1111122 
SCCF RECON,ioos:station:SCCF:11:1,2012-06-03T16:00:00Z,26.4679,-82.0631,2.423,36.05,1111122 
SCCF RECON,ioos:station:SCCF:11:1,2012-06-03T17:00:00Z,26.4679,-82.0631,2.369,36.06,1111122 
SCCF RECON,ioos:station:SCCF:11:1,2012-06-03T18:00:00Z,26.4679,-82.0631,2.218,36.1,1111122 
SCCF RECON,ioos:station:SCCF:11:1,2012-06-03T19:00:00Z,26.4679,-82.0631,2.04,36.18,1111122 
SCCF RECON,ioos:station:SCCF:11:1,2012-06-03T20:00:00Z,26.4679,-82.0631,1.881,36.19,1111122 
SCCF RECON,ioos:station:SCCF:11:1,2012-06-03T21:00:00Z,26.4679,-82.0631,1.707,36.22,1111122 
SCCF RECON,ioos:station:SCCF:11:1,2012-06-03T22:00:00Z,26.4679,-82.0631,1.531,36.24,1111122 
SCCF RECON,ioos:station:SCCF:11:1,2012-06-03T23:00:00Z,26.4679,-82.0631,1.398,36.28,1111122 
SCCF RECON,ioos:station:SCCF:11:1,2012-06-04T00:00:00Z,26.4679,-82.0631,1.33,36.3,1111122 
SCCF RECON,ioos:station:SCCF:11:1,2012-06-04T01:00:00Z,26.4679,-82.0631,1.36,36.28,1111122 
SCCF RECON,ioos:station:SCCF:11:1,2012-06-04T02:00:00Z,26.4679,-82.0631,1.54,36.26,1111122 
SCCF RECON,ioos:station:SCCF:11:1,2012-06-04T03:00:00Z,26.4679,-82.0631,1.71,36.27,1111122 
SCCF RECON,ioos:station:SCCF:11:1,2012-06-04T04:00:00Z,26.4679,-82.0631,1.87,36.28,1111122 
SCCF RECON,ioos:station:SCCF:11:1,2012-06-04T05:00:00Z,26.4679,-82.0631,2.01,36.23,1111122 
SCCF RECON,ioos:station:SCCF:11:1,2012-06-04T06:00:00Z,26.4679,-82.0631,2.09,36.04,1111122 
SCCF RECON,ioos:station:SCCF:11:1,2012-06-04T07:00:00Z,26.4679,-82.0631,2.08,36.07,1111122 
SCCF RECON,ioos:station:SCCF:11:1,2012-06-04T08:00:00Z,26.4679,-82.0631,2.0,36.04,1111122 
SCCF RECON,ioos:station:SCCF:11:1,2012-06-04T09:00:00Z,26.4679,-82.0631,1.93,36.05,1111122 
SCCF RECON,ioos:station:SCCF:11:1,2012-06-04T10:00:00Z,26.4679,-82.0631,1.9,36.11,1111122 
SCCF RECON,ioos:station:SCCF:11:1,2012-06-04T11:00:00Z,26.4679,-82.0631,1.89,36.12,1111122 
SCCF RECON,ioos:station:SCCF:11:1,2012-06-04T12:00:00Z,26.4679,-82.0631,1.925,36.07,1111122 
SCCF RECON,ioos:station:SCCF:11:1,2012-06-04T13:00:00Z,26.4679,-82.0631,2.05,36.11,1111122 
SCCF RECON,ioos:station:SCCF:11:1,2012-06-04T14:00:00Z,26.4679,-82.0631,2.2,36.25,1111122 
SCCF RECON,ioos:station:SCCF:11:1,2012-06-04T15:00:00Z,26.4679,-82.0631,2.32,36.27,1111122 
SCCF RECON,ioos:station:SCCF:11:1,2012-06-04T16:00:00Z,26.4679,-82.0631,2.383,36.18,1111122 
SCCF RECON,ioos:station:SCCF:11:1,2012-06-04T17:00:00Z,26.4679,-82.0631,2.401,36.17,1111122 
SCCF RECON,ioos:station:SCCF:11:1,2012-06-04T18:00:00Z,26.4679,-82.0631,2.357,36.04,1111122 
SCCF RECON,ioos:station:SCCF:11:1,2012-06-04T19:00:00Z,26.4679,-82.0631,2.21,36.1,1111122 
SCCF RECON,ioos:station:SCCF:11:1,2012-06-04T20:00:00Z,26.4679,-82.0631,2.018,36.2,1111122 
SCCF RECON,ioos:station:SCCF:11:1,2012-06-04T21:00:00Z,26.4679,-82.0631,1.839,36.23,1111122 
SCCF RECON,ioos:station:SCCF:11:1,2012-06-04T22:00:00Z,26.4679,-82.0631,1.66,36.25,1111122 
SCCF RECON,ioos:station:SCCF:11:1,2012-06-04T23:00:00Z,26.4679,-82.0631,1.48,36.31,1111122 
SCCF RECON,ioos:station:SCCF:11:1,2012-06-05T00:00:00Z,26.4679,-82.0631,1.35,36.38,1111122 
SCCF RECON,ioos:station:SCCF:11:1,2012-06-05T01:00:00Z,26.4679,-82.0631,1.31,36.41,1111122 
SCCF RECON,ioos:station:SCCF:11:1,2012-06-05T02:00:00Z,26.4679,-82.0631,1.41,36.33,1111122 
SCCF RECON,ioos:station:SCCF:11:1,2012-06-05T03:00:00Z,26.4679,-82.0631,1.59,36.3,1111122 
SCCF RECON,ioos:station:SCCF:11:1,2012-06-05T04:00:00Z,26.4679,-82.0631,1.74,35.9,1111122 
SCCF RECON,ioos:station:SCCF:11:1,2012-06-05T05:00:00Z,26.4679,-82.0631,1.88,35.8,1111122 
SCCF RECON,ioos:station:SCCF:11:1,2012-06-05T06:00:00Z,26.4679,-82.0631,2.0,35.77,1111122 
SCCF RECON,ioos:station:SCCF:11:1,2012-06-05T07:00:00Z,26.4679,-82.0631,2.09,35.72,1111122 
SCCF RECON,ioos:station:SCCF:11:1,2012-06-05T08:00:00Z,26.4679,-82.0631,2.12,35.91,1111122 
SCCF RECON,ioos:station:SCCF:11:1,2012-06-05T09:00:00Z,26.4679,-82.0631,2.074,35.9,1111122 
SCCF RECON,ioos:station:SCCF:11:1,2012-06-05T10:00:00Z,26.4679,-82.0631,2.019,35.9,1111122 
SCCF RECON,ioos:station:SCCF:11:1,2012-06-05T11:00:00Z,26.4679,-82.0631,1.96,35.86,1111122 
SCCF RECON,ioos:station:SCCF:11:1,2012-06-05T12:00:00Z,26.4679,-82.0631,1.98,35.91,1111122 
SCCF RECON,ioos:station:SCCF:11:1,2012-06-05T13:00:00Z,26.4679,-82.0631,2.06,35.91,1111122 
SCCF RECON,ioos:station:SCCF:11:1,2012-06-05T14:00:00Z,26.4679,-82.0631,2.181,36.3,1111122 
SCCF RECON,ioos:station:SCCF:11:1,2012-06-05T15:00:00Z,26.4679,-82.0631,2.32,36.64,1111122 
SCCF RECON,ioos:station:SCCF:11:1,2012-06-05T16:00:00Z,26.4679,-82.0631,2.421,36.65,1111122 
SCCF RECON,ioos:station:SCCF:11:1,2012-06-05T17:00:00Z,26.4679,-82.0631,2.47,36.57,1111122 
SCCF RECON,ioos:station:SCCF:11:1,2012-06-05T18:00:00Z,26.4679,-82.0631,2.46,36.57,1111122 
SCCF RECON,ioos:station:SCCF:11:1,2012-06-05T19:00:00Z,26.4679,-82.0631,2.39,36.3,1111122 
SCCF RECON,ioos:station:SCCF:11:1,2012-06-05T20:00:00Z,26.4679,-82.0631,2.24,36.27,1111122 
SCCF RECON,ioos:station:SCCF:11:1,2012-06-05T21:00:00Z,26.4679,-82.0631,2.066,36.22,1111122 
SCCF RECON,ioos:station:SCCF:11:1,2012-06-05T22:00:00Z,26.4679,-82.0631,1.891,36.22,1111122 
SCCF RECON,ioos:station:SCCF:11:1,2012-06-05T23:00:00Z,26.4679,-82.0631,1.73,36.22,1111122 
SCCF RECON,ioos:station:SCCF:11:1,2012-06-06T00:00:00Z,26.4679,-82.0631,1.564,36.24,1111122 
SCCF RECON,ioos:station:SCCF:11:1,2012-06-06T01:00:00Z,26.4679,-82.0631,1.44,36.28,1111122 
SCCF RECON,ioos:station:SCCF:11:1,2012-06-06T02:00:00Z,26.4679,-82.0631,1.396,36.31,1111122 
SCCF RECON,ioos:station:SCCF:11:1,2012-06-06T03:00:00Z,26.4679,-82.0631,1.51,36.3,1111122 
SCCF RECON,ioos:station:SCCF:11:1,2012-06-06T04:00:00Z,26.4679,-82.0631,1.71,36.06,1111122 
SCCF RECON,ioos:station:SCCF:11:1,2012-06-06T05:00:00Z,26.4679,-82.0631,1.86,35.97,1111122 
SCCF RECON,ioos:station:SCCF:11:1,2012-06-06T06:00:00Z,26.4679,-82.0631,1.96,35.99,1111122 
SCCF RECON,ioos:station:SCCF:11:1,2012-06-06T07:00:00Z,26.4679,-82.0631,2.05,36.02,1111122 
SCCF RECON,ioos:station:SCCF:11:1,2012-06-06T08:00:00Z,26.4679,-82.0631,2.13,36.03,1111122 
SCCF RECON,ioos:station:SCCF:11:1,2012-06-06T09:00:00Z,26.4679,-82.0631,2.15,36.38,1111122 
SCCF RECON,ioos:station:SCCF:11:1,2012-06-06T10:00:00Z,26.4679,-82.0631,2.071,36.11,1111122 
SCCF RECON,ioos:station:SCCF:11:1,2012-06-06T11:00:00Z,26.4679,-82.0631,1.996,36.03,1111122 
SCCF RECON,ioos:station:SCCF:11:1,2012-06-06T12:00:00Z,26.4679,-82.0631,1.957,36.03,1111122 
SCCF RECON,ioos:station:SCCF:11:1,2012-06-06T13:00:00Z,26.4679,-82.0631,1.92,36.01,1111122 
SCCF RECON,ioos:station:SCCF:11:1,2012-06-06T14:00:00Z,26.4679,-82.0631,2.013,36.25,1111122 
SCCF RECON,ioos:station:SCCF:11:1,2012-06-06T15:00:00Z,26.4679,-82.0631,2.192,36.63,1111122 
SCCF RECON,ioos:station:SCCF:11:1,2012-06-06T16:00:00Z,26.4679,-82.0631,2.349,36.75,1111122 
SCCF RECON,ioos:station:SCCF:11:1,2012-06-06T17:00:00Z,26.4679,-82.0631,2.43,36.69,1111122 
SCCF RECON,ioos:station:SCCF:11:1,2012-06-06T18:00:00Z,26.4679,-82.0631,2.49,36.75,1111122 
SCCF RECON,ioos:station:SCCF:11:1,2012-06-06T19:00:00Z,26.4679,-82.0631,2.485,36.71,1111122 
SCCF RECON,ioos:station:SCCF:11:1,2012-06-06T20:00:00Z,26.4679,-82.0631,2.42,36.74,1111122 
SCCF RECON,ioos:station:SCCF:11:1,2012-06-06T21:00:00Z,26.4679,-82.0631,2.26,36.46,1111122 
SCCF RECON,ioos:station:SCCF:11:1,2012-06-06T22:00:00Z,26.4679,-82.0631,2.107,36.38,1111122 
SCCF RECON,ioos:station:SCCF:11:1,2012-06-06T23:00:00Z,26.4679,-82.0631,1.941,36.39,1111122 
SCCF RECON,ioos:station:SCCF:11:1,2012-06-07T00:00:00Z,26.4679,-82.0631,1.772,36.34,1111122 
SCCF RECON,ioos:station:SCCF:11:1,2012-06-07T01:00:00Z,26.4679,-82.0631,1.621,36.28,1111122 
SCCF RECON,ioos:station:SCCF:11:1,2012-06-07T02:00:00Z,26.4679,-82.0631,1.511,36.29,1111122 
SCCF RECON,ioos:station:SCCF:11:1,2012-06-07T03:00:00Z,26.4679,-82.0631,1.5,36.29,1111122 
SCCF RECON,ioos:station:SCCF:11:1,2012-06-07T04:00:00Z,26.4679,-82.0631,1.611,36.45,1111122 
SCCF RECON,ioos:station:SCCF:11:1,2012-06-07T05:00:00Z,26.4679,-82.0631,1.793,36.37,1111122 
SCCF RECON,ioos:station:SCCF:11:1,2012-06-07T06:00:00Z,26.4679,-82.0631,1.933,36.4,1111122 
SCCF RECON,ioos:station:SCCF:11:1,2012-06-07T07:00:00Z,26.4679,-82.0631,2.04,36.42,1111122 
SCCF RECON,ioos:station:SCCF:11:1,2012-06-07T08:00:00Z,26.4679,-82.0631,2.12,36.43,1111122 
SCCF RECON,ioos:station:SCCF:11:1,2012-06-07T09:00:00Z,26.4679,-82.0631,2.17,36.62,1111122 
SCCF RECON,ioos:station:SCCF:11:1,2012-06-07T10:00:00Z,26.4679,-82.0631,2.161,36.64,1111122 
SCCF RECON,ioos:station:SCCF:11:1,2012-06-07T11:00:00Z,26.4679,-82.0631,2.07,36.55,1111122 
SCCF RECON,ioos:station:SCCF:11:1,2012-06-07T12:00:00Z,26.4679,-82.0631,2.02,36.46,1111122 
SCCF RECON,ioos:station:SCCF:11:1,2012-06-07T13:00:00Z,26.4679,-82.0631,2.02,36.44,1111122 
SCCF RECON,ioos:station:SCCF:11:1,2012-06-07T14:00:00Z,26.4679,-82.0631,2.03,36.48,1111122 
SCCF RECON,ioos:station:SCCF:11:1,2012-06-07T15:00:00Z,26.4679,-82.0631,2.09,36.83,1111122 
SCCF RECON,ioos:station:SCCF:11:1,2012-06-07T16:00:00Z,26.4679,-82.0631,2.206,36.83,1111122 
SCCF RECON,ioos:station:SCCF:11:1,2012-06-07T17:00:00Z,26.4679,-82.0631,2.332,36.82,1111122 
SCCF RECON,ioos:station:SCCF:11:1,2012-06-07T18:00:00Z,26.4679,-82.0631,2.39,36.8,1111122 
SCCF RECON,ioos:station:SCCF:11:1,2012-06-07T19:00:00Z,26.4679,-82.0631,2.4,36.8,1111122 
SCCF RECON,ioos:station:SCCF:11:1,2012-06-07T20:00:00Z,26.4679,-82.0631,2.38,36.77,1111122 
SCCF RECON,ioos:station:SCCF:11:1,2012-06-07T21:00:00Z,26.4679,-82.0631,2.321,36.76,1111122 
SCCF RECON,ioos:station:SCCF:11:1,2012-06-07T22:00:00Z,26.4679,-82.0631,2.2,36.59,1111122 
SCCF RECON,ioos:station:SCCF:11:1,2012-06-07T23:00:00Z,26.4679,-82.0631,2.049,36.63,1111122 
SCCF RECON,ioos:station:SCCF:11:1,2012-06-08T00:00:00Z,26.4679,-82.0631,1.91,36.62,1111122 
SCCF RECON,ioos:station:SCCF:11:1,2012-06-08T01:00:00Z,26.4679,-82.0631,1.76,36.58,1111122 
SCCF RECON,ioos:station:SCCF:11:1,2012-06-08T02:00:00Z,26.4679,-82.0631,1.61,36.56,1111122 
SCCF RECON,ioos:station:SCCF:11:1,2012-06-08T03:00:00Z,26.4679,-82.0631,1.51,36.54,1111122 
SCCF RECON,ioos:station:SCCF:11:1,2012-06-08T04:00:00Z,26.4679,-82.0631,1.53,36.54,1111122 
SCCF RECON,ioos:station:SCCF:11:1,2012-06-08T05:00:00Z,26.4679,-82.0631,1.68,36.62,1111122 
SCCF RECON,ioos:station:SCCF:11:1,2012-06-08T06:00:00Z,26.4679,-82.0631,1.836,36.59,1111122 
SCCF RECON,ioos:station:SCCF:11:1,2012-06-08T07:00:00Z,26.4679,-82.0631,1.94,36.59,1111122 
SCCF RECON,ioos:station:SCCF:11:1,2012-06-08T08:00:00Z,26.4679,-82.0631,2.01,36.59,1111122 
SCCF RECON,ioos:station:SCCF:11:1,2012-06-08T09:00:00Z,26.4679,-82.0631,2.05,36.6,1111122 
SCCF RECON,ioos:station:SCCF:11:1,2012-06-08T10:00:00Z,26.4679,-82.0631,2.08,36.63,1111122 
SCCF RECON,ioos:station:SCCF:11:1,2012-06-08T11:00:00Z,26.4679,-82.0631,2.07,36.6,1111122 
SCCF RECON,ioos:station:SCCF:11:1,2012-06-08T12:00:00Z,26.4679,-82.0631,2.03,36.62,1111122 
SCCF RECON,ioos:station:SCCF:11:1,2012-06-08T13:00:00Z,26.4679,-82.0631,2.01,36.62,1111122 
SCCF RECON,ioos:station:SCCF:11:1,2012-06-08T14:00:00Z,26.4679,-82.0631,1.95,36.59,1111122 
SCCF RECON,ioos:station:SCCF:11:1,2012-06-08T15:00:00Z,26.4679,-82.0631,1.91,36.6,1111122 
SCCF RECON,ioos:station:SCCF:11:1,2012-06-08T16:00:00Z,26.4679,-82.0631,1.946,36.57,1111122 
SCCF RECON,ioos:station:SCCF:11:1,2012-06-08T17:00:00Z,26.4679,-82.0631,2.08,36.71,1111122 
SCCF RECON,ioos:station:SCCF:11:1,2012-06-08T18:00:00Z,26.4679,-82.0631,2.2,36.71,1111122 
SCCF RECON,ioos:station:SCCF:11:1,2012-06-08T19:00:00Z,26.4679,-82.0631,2.27,36.7,1111122 
SCCF RECON,ioos:station:SCCF:11:1,2012-06-08T20:00:00Z,26.4679,-82.0631,2.292,36.69,1111122 
SCCF RECON,ioos:station:SCCF:11:1,2012-06-08T21:00:00Z,26.4679,-82.0631,2.31,36.68,1111122 
SCCF RECON,ioos:station:SCCF:11:1,2012-06-08T22:00:00Z,26.4679,-82.0631,2.268,36.67,1111122 
SCCF RECON,ioos:station:SCCF:11:1,2012-06-08T23:00:00Z,26.4679,-82.0631,2.12,36.63,1111122 
SCCF RECON,ioos:station:SCCF:11:1,2012-06-09T00:00:00Z,26.4679,-82.0631,1.956,36.66,1111122 
SCCF RECON,ioos:station:SCCF:11:1,2012-06-09T01:00:00Z,26.4679,-82.0631,1.815,36.64,1111122 
SCCF RECON,ioos:station:SCCF:11:1,2012-06-09T02:00:00Z,26.4679,-82.0631,1.698,36.64,1111122 
SCCF RECON,ioos:station:SCCF:11:1,2012-06-09T03:00:00Z,26.4679,-82.0631,1.599,36.66,1111122 
SCCF RECON,ioos:station:SCCF:11:1,2012-06-09T04:00:00Z,26.4679,-82.0631,1.54,36.67,1111122 
SCCF RECON,ioos:station:SCCF:11:1,2012-06-09T05:00:00Z,26.4679,-82.0631,1.655,36.66,1111122 
SCCF RECON,ioos:station:SCCF:11:1,2012-06-09T06:00:00Z,26.4679,-82.0631,1.8,35.92,1111122 
SCCF RECON,ioos:station:SCCF:11:1,2012-06-09T07:00:00Z,26.4679,-82.0631,1.84,36.15,1111122 
SCCF RECON,ioos:station:SCCF:11:1,2012-06-09T08:00:00Z,26.4679,-82.0631,1.849,36.06,1111122 
SCCF RECON,ioos:station:SCCF:11:1,2012-06-09T09:00:00Z,26.4679,-82.0631,1.981,36.07,1111122 
SCCF RECON,ioos:station:SCCF:11:1,2012-06-09T10:00:00Z,26.4679,-82.0631,2.118,35.99,1111122 
SCCF RECON,ioos:station:SCCF:11:1,2012-06-09T11:00:00Z,26.4679,-82.0631,2.12,36.0,1111122 
SCCF RECON,ioos:station:SCCF:11:1,2012-06-09T12:00:00Z,26.4679,-82.0631,2.148,36.09,1111122 
SCCF RECON,ioos:station:SCCF:11:1,2012-06-09T13:00:00Z,26.4679,-82.0631,2.12,36.02,1111122 
SCCF RECON,ioos:station:SCCF:11:1,2012-06-09T14:00:00Z,26.4679,-82.0631,1.992,36.03,1111122 
SCCF RECON,ioos:station:SCCF:11:1,2012-06-09T15:00:00Z,26.4679,-82.0631,1.942,35.83,1111122 
SCCF RECON,ioos:station:SCCF:11:1,2012-06-09T16:00:00Z,26.4679,-82.0631,1.91,35.99,1111122 
SCCF RECON,ioos:station:SCCF:11:1,2012-06-09T17:00:00Z,26.4679,-82.0631,1.95,35.91,1111122 
SCCF RECON,ioos:station:SCCF:11:1,2012-06-09T18:00:00Z,26.4679,-82.0631,2.101,36.22,1111122 
SCCF RECON,ioos:station:SCCF:11:1,2012-06-09T19:00:00Z,26.4679,-82.0631,2.211,36.21,1111122 
SCCF RECON,ioos:station:SCCF:11:1,2012-06-09T20:00:00Z,26.4679,-82.0631,2.252,36.18,1111122 
SCCF RECON,ioos:station:SCCF:11:1,2012-06-09T21:00:00Z,26.4679,-82.0631,2.27,36.18,1111122 
SCCF RECON,ioos:station:SCCF:11:1,2012-06-09T22:00:00Z,26.4679,-82.0631,2.28,36.22,1111122 
SCCF RECON,ioos:station:SCCF:11:1,2012-06-09T23:00:00Z,26.4679,-82.0631,2.224,36.05,1111122 
SCCF RECON,ioos:station:SCCF:11:1,2012-06-10T00:00:00Z,26.4679,-82.0631,2.093,35.78,1111122 
SCCF RECON,ioos:station:SCCF:11:1,2012-06-10T01:00:00Z,26.4679,-82.0631,2.0,35.92,1111122 
SCCF RECON,ioos:station:SCCF:11:1,2012-06-10T02:00:00Z,26.4679,-82.0631,1.91,35.96,1111122 
SCCF RECON,ioos:station:SCCF:11:1,2012-06-10T03:00:00Z,26.4679,-82.0631,1.83,35.65,1111122 
SCCF RECON,ioos:station:SCCF:11:1,2012-06-10T04:00:00Z,26.4679,-82.0631,1.737,35.45,1111122 
SCCF RECON,ioos:station:SCCF:11:1,2012-06-10T05:00:00Z,26.4679,-82.0631,1.7,35.58,1111122 
SCCF RECON,ioos:station:SCCF:11:1,2012-06-10T06:00:00Z,26.4679,-82.0631,1.732,35.85,1111122 
SCCF RECON,ioos:station:SCCF:11:1,2012-06-10T07:00:00Z,26.4679,-82.0631,1.867,35.79,1111122 
SCCF RECON,ioos:station:SCCF:11:1,2012-06-10T08:00:00Z,26.4679,-82.0631,2.0,35.89,1111122 
SCCF RECON,ioos:station:SCCF:11:1,2012-06-10T09:00:00Z,26.4679,-82.0631,2.069,36.05,1111122 
SCCF RECON,ioos:station:SCCF:11:1,2012-06-10T10:00:00Z,26.4679,-82.0631,2.16,35.92,1111122 
SCCF RECON,ioos:station:SCCF:11:1,2012-06-10T11:00:00Z,26.4679,-82.0631,2.22,36.1,1111122 
SCCF RECON,ioos:station:SCCF:11:1,2012-06-10T12:00:00Z,26.4679,-82.0631,2.19,36.17,1111122 
SCCF RECON,ioos:station:SCCF:11:1,2012-06-10T13:00:00Z,26.4679,-82.0631,2.1,36.06,1111122 
SCCF RECON,ioos:station:SCCF:11:1,2012-06-10T14:00:00Z,26.4679,-82.0631,2.017,36.04,1111122 
SCCF RECON,ioos:station:SCCF:11:1,2012-06-10T15:00:00Z,26.4679,-82.0631,1.961,35.87,1111122 
SCCF RECON,ioos:station:SCCF:11:1,2012-06-10T16:00:00Z,26.4679,-82.0631,1.912,35.85,1111122 
SCCF RECON,ioos:station:SCCF:11:1,2012-06-10T17:00:00Z,26.4679,-82.0631,1.89,35.78,1111122 
SCCF RECON,ioos:station:SCCF:11:1,2012-06-10T18:00:00Z,26.4679,-82.0631,1.929,35.79,1111122 
SCCF RECON,ioos:station:SCCF:11:1,2012-06-10T19:00:00Z,26.4679,-82.0631,2.007,36.1,1111122 
SCCF RECON,ioos:station:SCCF:11:1,2012-06-10T20:00:00Z,26.4679,-82.0631,2.079,36.11,1111122 
SCCF RECON,ioos:station:SCCF:11:1,2012-06-10T21:00:00Z,26.4679,-82.0631,2.14,36.22,1111122 
SCCF RECON,ioos:station:SCCF:11:1,2012-06-10T22:00:00Z,26.4679,-82.0631,2.18,36.24,1111122 
SCCF RECON,ioos:station:SCCF:11:1,2012-06-10T23:00:00Z,26.4679,-82.0631,2.19,36.26,1111122 
SCCF RECON,ioos:station:SCCF:11:1,2012-06-11T00:00:00Z,26.4679,-82.0631,2.16,36.25,1111122 
SCCF RECON,ioos:station:SCCF:11:1,2012-06-11T01:00:00Z,26.4679,-82.0631,2.15,36.26,1111122 
SCCF RECON,ioos:station:SCCF:11:1,2012-06-11T02:00:00Z,26.4679,-82.0631,2.03,36.03,1111122 
SCCF RECON,ioos:station:SCCF:11:1,2012-06-11T03:00:00Z,26.4679,-82.0631,1.929,36.01,1111122 
SCCF RECON,ioos:station:SCCF:11:1,2012-06-11T04:00:00Z,26.4679,-82.0631,1.86,35.93,1111122 
SCCF RECON,ioos:station:SCCF:11:1,2012-06-11T05:00:00Z,26.4679,-82.0631,1.79,35.87,1111122 
SCCF RECON,ioos:station:SCCF:11:1,2012-06-11T06:00:00Z,26.4679,-82.0631,1.74,35.88,1111122 
SCCF RECON,ioos:station:SCCF:11:1,2012-06-11T07:00:00Z,26.4679,-82.0631,1.79,35.95,1111122 
SCCF RECON,ioos:station:SCCF:11:1,2012-06-11T08:00:00Z,26.4679,-82.0631,1.923,36.03,1111122 
SCCF RECON,ioos:station:SCCF:11:1,2012-06-11T09:00:00Z,26.4679,-82.0631,2.049,36.09,1111122 
SCCF RECON,ioos:station:SCCF:11:1,2012-06-11T10:00:00Z,26.4679,-82.0631,2.12,36.1,1111122 
SCCF RECON,ioos:station:SCCF:11:1,2012-06-11T11:00:00Z,26.4679,-82.0631,2.19,36.21,1111122 
SCCF RECON,ioos:station:SCCF:11:1,2012-06-11T12:00:00Z,26.4679,-82.0631,2.23,36.28,1111122 
SCCF RECON,ioos:station:SCCF:11:1,2012-06-11T13:00:00Z,26.4679,-82.0631,2.22,36.25,1111122 
SCCF RECON,ioos:station:SCCF:11:1,2012-06-11T14:00:00Z,26.4679,-82.0631,2.12,36.19,1111122 
SCCF RECON,ioos:station:SCCF:11:1,2012-06-11T15:00:00Z,26.4679,-82.0631,2.04,36.15,1111122 
SCCF RECON,ioos:station:SCCF:11:1,2012-06-11T16:00:00Z,26.4679,-82.0631,1.95,36.15,1111122 
SCCF RECON,ioos:station:SCCF:11:1,2012-06-11T17:00:00Z,26.4679,-82.0631,1.861,36.03,1111122 
SCCF RECON,ioos:station:SCCF:11:1,2012-06-11T18:00:00Z,26.4679,-82.0631,1.83,36.0,1111122 